| time (UTC) | temp F | wind direction | speed MPH | gust MPH | rain 1hr in | rain 24hr in | rain mn in | humidity % | barometer mb |
| 20260504120105 | 50 | 312 | 2.0 | 8.0 | 0.00 | 0.00 | 0.00 | 74 | 1001.7 |
| 20260504081534 | 54 | 232 | 15.0 | 21.0 | 0.00 | 0.00 | 0.00 | 58 | 1000.1 |
| 20260504044605 | 53 | 219 | 9.0 | 12.0 | 0.00 | 0.00 | 0.00 | 60 | 1003.3 |
| 20260504043059 | 53 | 219 | 8.0 | 11.0 | 0.00 | 0.00 | 0.00 | 60 | 1003.6 |
| 20260504041555 | 53 | 217 | 8.0 | 13.0 | 0.00 | 0.00 | 0.00 | 59 | 1003.8 |
| 20260504040105 | 53 | 218 | 8.0 | 11.0 | 0.00 | 0.00 | 0.00 | 61 | 1004.0 |
| 20260504034612 | 53 | 219 | 9.0 | 11.0 | 0.00 | 0.00 | 0.00 | 59 | 1004.3 |
| 20260504033050 | 53 | 217 | 8.0 | 10.0 | 0.00 | 0.00 | 0.00 | 60 | 1004.5 |
| 20260504031547 | 52 | 219 | 7.0 | 9.0 | 0.00 | 0.00 | 0.00 | 62 | 1004.9 |
| 20260504030104 | 52 | 219 | 5.0 | 7.0 | 0.00 | 0.00 | 0.00 | 61 | 1005.1 |
| 20260504024549 | 52 | 221 | 6.0 | 7.0 | 0.00 | 0.00 | 0.00 | 60 | 1005.4 |
| 20260504023044 | 52 | 216 | 4.0 | 8.0 | 0.00 | 0.00 | 0.00 | 57 | 1005.4 |
| 20260504021549 | 54 | 221 | 5.0 | 6.0 | 0.00 | 0.00 | 0.00 | 52 | 1005.4 |
| 20260504020041 | 58 | 250 | 3.0 | 4.0 | 0.00 | 0.00 | 0.00 | 49 | 1005.6 |
| 20260504014540 | 60 | 250 | 4.0 | 7.0 | 0.00 | 0.00 | 0.00 | 41 | 1005.7 |
| 20260504013048 | 62 | 254 | 5.0 | 8.0 | 0.00 | 0.00 | 0.00 | 42 | 1006.0 |
| 20260504011540 | 63 | 263 | 5.0 | 10.0 | 0.00 | 0.00 | 0.00 | 42 | 1006.0 |
| 20260504010036 | 64 | 254 | 8.0 | 12.0 | 0.00 | 0.00 | 0.00 | 42 | 1006.1 |
| 20260504004536 | 65 | 260 | 9.0 | 16.0 | 0.00 | 0.00 | 0.00 | 37 | 1006.2 |
| 20260504003035 | 66 | 257 | 11.0 | 14.0 | 0.00 | 0.00 | 0.00 | 35 | 1006.2 |
| 20260504001532 | 67 | 252 | 12.0 | 16.0 | 0.00 | 0.00 | 0.00 | 32 | 1006.2 |
| 20260504000031 | 67 | 244 | 11.0 | 17.0 | 0.00 | 0.00 | 0.00 | 29 | 1006.2 |
| 20260503234531 | 67 | 258 | 8.0 | 13.0 | 0.00 | 0.00 | 0.00 | 37 | 1006.3 |
| 20260503233035 | 67 | 262 | 9.0 | 14.0 | 0.00 | 0.00 | 0.00 | 33 | 1006.5 |
| 20260503231525 | 68 | 267 | 8.0 | 11.0 | 0.00 | 0.00 | 0.00 | 35 | 1006.6 |
| 20260503230028 | 68 | 259 | 10.0 | 16.0 | 0.00 | 0.00 | 0.00 | 35 | 1006.9 |
| 20260503224521 | 68 | 268 | 8.0 | 12.0 | 0.00 | 0.00 | 0.00 | 34 | 1007.1 |
| 20260503223019 | 68 | 273 | 7.0 | 12.0 | 0.00 | 0.00 | 0.00 | 33 | 1007.3 |
| 20260503221517 | 68 | 284 | 8.0 | 13.0 | 0.00 | 0.00 | 0.00 | 31 | 1007.4 |
| 20260503220015 | 68 | 287 | 6.0 | 12.0 | 0.00 | 0.00 | 0.00 | 34 | 1007.6 |
| 20260503214513 | 68 | 273 | 7.0 | 12.0 | 0.00 | 0.00 | 0.00 | 32 | 1007.8 |
| 20260503213011 | 68 | 263 | 7.0 | 10.0 | 0.00 | 0.00 | 0.00 | 35 | 1007.9 |
| 20260503211508 | 67 | 284 | 5.0 | 10.0 | 0.00 | 0.00 | 0.00 | 38 | 1008.3 |
| 20260503210008 | 68 | 266 | 5.0 | 9.0 | 0.00 | 0.00 | 0.00 | 37 | 1008.7 |
| 20260503204502 | 67 | 261 | 7.0 | 10.0 | 0.00 | 0.00 | 0.00 | 35 | 1009.0 |
| 20260503203001 | 67 | 268 | 7.0 | 11.0 | 0.00 | 0.00 | 0.00 | 39 | 1009.1 |
| 20260503201601 | 66 | 251 | 7.0 | 11.0 | 0.00 | 0.00 | 0.00 | 39 | 1009.3 |
| 20260503200059 | 66 | 267 | 6.0 | 10.0 | 0.00 | 0.00 | 0.00 | 43 | 1009.5 |
| 20260503194555 | 66 | 308 | 5.0 | 10.0 | 0.00 | 0.00 | 0.00 | 43 | 1009.7 |
| 20260503193109 | 65 | 294 | 5.0 | 11.0 | 0.00 | 0.00 | 0.00 | 43 | 1009.9 |
| 20260503191553 | 65 | 320 | 6.0 | 14.0 | 0.00 | 0.00 | 0.00 | 44 | 1010.2 |
| 20260503190106 | 64 | 292 | 8.0 | 15.0 | 0.00 | 0.00 | 0.00 | 44 | 1010.4 |
| 20260503184551 | 64 | 318 | 5.0 | 13.0 | 0.00 | 0.00 | 0.00 | 44 | 1010.6 |
| 20260503183059 | 64 | 321 | 7.0 | 11.0 | 0.00 | 0.00 | 0.00 | 43 | 1010.9 |
| 20260503181546 | 64 | 309 | 8.0 | 12.0 | 0.00 | 0.00 | 0.00 | 41 | 1011.0 |
| 20260503180055 | 64 | 302 | 8.0 | 14.0 | 0.00 | 0.00 | 0.00 | 47 | 1011.1 |
| 20260503174544 | 63 | 284 | 7.0 | 19.0 | 0.00 | 0.00 | 0.00 | 45 | 1011.4 |
| 20260503173104 | 63 | 305 | 8.0 | 15.0 | 0.00 | 0.00 | 0.00 | 46 | 1011.5 |
| 20260503171548 | 63 | 342 | 5.0 | 14.0 | 0.00 | 0.00 | 0.00 | 49 | 1011.7 |